Meteo orario Abay

Oggi, 26 Febbraio, Venerdi

Tempo Temperatura Precipitazioni Vento Pressione Umidità
00:00 -30°C° 0 mm 7 m/s 670 mm Hg 91%
01:00 -30°C° 0.1 mm 7 m/s 670 mm Hg 92%
02:00 -30°C° 0.1 mm 7 m/s 670 mm Hg 92%
03:00 -31°C° 0.1 mm 7 m/s 670 mm Hg 92%
04:00 -30°C° 0.1 mm 6 m/s 671 mm Hg 92%
05:00 -31°C° 0.1 mm 5 m/s 671 mm Hg 93%
06:00 -31°C° 0 mm 4 m/s 672 mm Hg 91%
07:00 -31°C° 0 mm 4 m/s 672 mm Hg 91%
08:00 -30°C° 0 mm 4 m/s 672 mm Hg 90%
09:00 -31°C° 0 mm 5 m/s 673 mm Hg 89%
10:00 -29°C° 0 mm 5 m/s 673 mm Hg 87%
11:00 -28°C° 0 mm 5 m/s 673 mm Hg 85%
12:00 -27°C° 0 mm 5 m/s 673 mm Hg 83%
13:00 -27°C° 0 mm 5 m/s 673 mm Hg 83%
14:00 -26°C° 0 mm 5 m/s 673 mm Hg 83%
15:00 -26°C° 0 mm 5 m/s 673 mm Hg 84%
16:00 -26°C° 0 mm 4 m/s 673 mm Hg 86%
17:00 -27°C° 0 mm 4 m/s 673 mm Hg 88%
18:00 -27°C° 0 mm 3 m/s 673 mm Hg 90%
19:00 -29°C° 0 mm 3 m/s 673 mm Hg 91%
20:00 -29°C° 0 mm 2 m/s 673 mm Hg 93%
21:00 -30°C° 0 mm 2 m/s 673 mm Hg 94%
22:00 -30°C° 0 mm 2 m/s 673 mm Hg 94%
23:00 -30°C° 0 mm 2 m/s 673 mm Hg 94%

Domani, 27 Febbraio, Sabato

Tempo Temperatura Precipitazioni Vento Pressione Umidità
00:00 -30°C° 0 mm 2 m/s 673 mm Hg 94%
01:00 -29°C° 0 mm 2 m/s 673 mm Hg 95%
02:00 -29°C° 0 mm 2 m/s 673 mm Hg 95%
03:00 -28°C° 0 mm 2 m/s 673 mm Hg 95%
04:00 -28°C° 0 mm 2 m/s 673 mm Hg 95%
05:00 -28°C° 0 mm 2 m/s 673 mm Hg 96%
06:00 -28°C° 0 mm 2 m/s 673 mm Hg 96%
07:00 -27°C° 0 mm 2 m/s 673 mm Hg 95%
08:00 -26°C° 0 mm 2 m/s 673 mm Hg 94%
09:00 -25°C° 0 mm 2 m/s 673 mm Hg 93%
10:00 -23°C° 0 mm 2 m/s 674 mm Hg 89%
11:00 -20°C° 0 mm 2 m/s 674 mm Hg 84%
12:00 -21°C° 0 mm 3 m/s 674 mm Hg 80%
13:00 -19°C° 0 mm 3 m/s 674 mm Hg 79%
14:00 -19°C° 0 mm 3 m/s 673 mm Hg 78%
15:00 -18°C° 0 mm 3 m/s 673 mm Hg 77%
16:00 -21°C° 0 mm 3 m/s 673 mm Hg 82%
17:00 -21°C° 0 mm 2 m/s 673 mm Hg 86%
18:00 -23°C° 0 mm 2 m/s 673 mm Hg 90%
19:00 -24°C° 0 mm 2 m/s 673 mm Hg 92%
20:00 -25°C° 0 mm 2 m/s 673 mm Hg 93%
21:00 -26°C° 0 mm 2 m/s 674 mm Hg 95%
22:00 -26°C° 0 mm 2 m/s 674 mm Hg 95%
23:00 -27°C° 0 mm 2 m/s 674 mm Hg 95%

Dopodomani, 28 Febbraio, Domenica

Tempo Temperatura Precipitazioni Vento Pressione Umidità
00:00 -27°C° 0 mm 2 m/s 674 mm Hg 95%
01:00 -27°C° 0 mm 2 m/s 674 mm Hg 95%
02:00 -27°C° 0 mm 2 m/s 674 mm Hg 95%
03:00 -24°C° 0 mm 1 m/s 674 mm Hg 95%
04:00 -23°C° 0 mm 1 m/s 675 mm Hg 95%
05:00 -26°C° 0 mm 2 m/s 675 mm Hg 95%
06:00 -26°C° 0 mm 2 m/s 675 mm Hg 95%
07:00 -24°C° 0 mm 2 m/s 675 mm Hg 94%
08:00 -23°C° 0 mm 2 m/s 676 mm Hg 94%
09:00 -20°C° 0 mm 2 m/s 676 mm Hg 93%
10:00 -18°C° 0 mm 2 m/s 676 mm Hg 89%
11:00 -17°C° 0 mm 3 m/s 676 mm Hg 85%
12:00 -15°C° 0 mm 3 m/s 676 mm Hg 81%
13:00 -15°C° 0 mm 3 m/s 675 mm Hg 80%
14:00 -15°C° 0 mm 3 m/s 675 mm Hg 80%
15:00 -15°C° 0 mm 4 m/s 675 mm Hg 80%
16:00 -15°C° 0 mm 3 m/s 674 mm Hg 83%
17:00 -16°C° 0 mm 3 m/s 674 mm Hg 86%
18:00 -15°C° 0 mm 2 m/s 673 mm Hg 90%
19:00 -15°C° 0 mm 2 m/s 673 mm Hg 90%
20:00 -16°C° 0 mm 2 m/s 673 mm Hg 90%
21:00 -16°C° 0 mm 2 m/s 673 mm Hg 91%
22:00 -16°C° 0 mm 2 m/s 672 mm Hg 92%
23:00 -16°C° 0 mm 2 m/s 672 mm Hg 92%

1 Marzo, Lunedi

Tempo Temperatura Precipitazioni Vento Pressione Umidità
00:00 -16°C° 0 mm 2 m/s 671 mm Hg 93%
01:00 -16°C° 0.1 mm 2 m/s 671 mm Hg 93%
02:00 -15°C° 0.1 mm 2 m/s 671 mm Hg 93%
03:00 -15°C° 0.1 mm 2 m/s 670 mm Hg 93%
04:00 -16°C° 0.1 mm 3 m/s 670 mm Hg 93%
05:00 -15°C° 0.1 mm 3 m/s 670 mm Hg 93%
06:00 -15°C° 0.1 mm 3 m/s 670 mm Hg 93%
07:00 -14°C° 0.1 mm 3 m/s 670 mm Hg 93%
08:00 -13°C° 0.1 mm 3 m/s 669 mm Hg 92%
09:00 -12°C° 0.1 mm 3 m/s 669 mm Hg 92%
10:00 -10°C° 0.1 mm 3 m/s 669 mm Hg 89%
11:00 -9°C° 0.1 mm 4 m/s 669 mm Hg 87%
12:00 -7°C° 0.1 mm 4 m/s 669 mm Hg 84%
13:00 -7°C° 0.1 mm 4 m/s 669 mm Hg 84%
14:00 -7°C° 0.1 mm 4 m/s 669 mm Hg 83%
15:00 -7°C° 0.1 mm 4 m/s 669 mm Hg 83%
16:00 -8°C° 0.1 mm 4 m/s 669 mm Hg 86%
17:00 -8°C° 0.1 mm 3 m/s 668 mm Hg 89%
18:00 -9°C° 0.1 mm 3 m/s 668 mm Hg 92%
19:00 -10°C° 0.1 mm 3 m/s 668 mm Hg 92%
20:00 -10°C° 0.1 mm 3 m/s 668 mm Hg 93%
21:00 -12°C° 0.1 mm 3 m/s 668 mm Hg 93%
22:00 -12°C° 0.1 mm 3 m/s 668 mm Hg 93%
23:00 -12°C° 0.1 mm 3 m/s 668 mm Hg 93%

2 Marzo, Martedi

Tempo Temperatura Precipitazioni Vento Pressione Umidità
00:00 -12°C° 0.1 mm 3 m/s 668 mm Hg 93%
01:00 -12°C° 0.1 mm 3 m/s 667 mm Hg 93%
02:00 -12°C° 0.1 mm 3 m/s 667 mm Hg 94%
03:00 -12°C° 0.1 mm 3 m/s 667 mm Hg 94%
04:00 -12°C° 0.1 mm 3 m/s 667 mm Hg 94%
05:00 -10°C° 0.1 mm 3 m/s 667 mm Hg 93%
06:00 -10°C° 0.1 mm 3 m/s 668 mm Hg 93%
07:00 -9°C° 0.1 mm 3 m/s 667 mm Hg 92%
08:00 -9°C° 0.1 mm 3 m/s 667 mm Hg 91%
09:00 -8°C° 0.1 mm 3 m/s 667 mm Hg 91%
10:00 -7°C° 0.1 mm 3 m/s 667 mm Hg 88%
11:00 -7°C° 0.1 mm 4 m/s 667 mm Hg 86%
12:00 -5°C° 0.1 mm 4 m/s 667 mm Hg 83%
13:00 -5°C° 0.1 mm 4 m/s 667 mm Hg 83%
14:00 -5°C° 0.1 mm 4 m/s 667 mm Hg 82%
15:00 -5°C° 0.1 mm 4 m/s 666 mm Hg 82%
16:00 -6°C° 0.1 mm 3 m/s 666 mm Hg 85%
17:00 -7°C° 0.1 mm 3 m/s 665 mm Hg 88%
18:00 -7°C° 0.1 mm 2 m/s 665 mm Hg 91%
19:00 -7°C° 0.1 mm 2 m/s 665 mm Hg 92%
20:00 -8°C° 0.1 mm 2 m/s 665 mm Hg 93%
21:00 -8°C° 0.1 mm 2 m/s 665 mm Hg 94%
22:00 -8°C° 0.2 mm 2 m/s 665 mm Hg 94%
23:00 -8°C° 0.2 mm 2 m/s 664 mm Hg 94%

3 Marzo, Mercoledi

Tempo Temperatura Precipitazioni Vento Pressione Umidità
00:00 -8°C° 0.2 mm 2 m/s 664 mm Hg 95%
01:00 -8°C° 0.2 mm 2 m/s 664 mm Hg 95%
02:00 -8°C° 0.2 mm 2 m/s 664 mm Hg 95%
03:00 -8°C° 0.2 mm 2 m/s 664 mm Hg 94%
04:00 -9°C° 0.1 mm 2 m/s 664 mm Hg 94%
05:00 -10°C° 0.1 mm 2 m/s 664 mm Hg 94%
06:00 -10°C° 0.1 mm 2 m/s 664 mm Hg 94%
07:00 -10°C° 0 mm 2 m/s 664 mm Hg 93%
08:00 -9°C° 0 mm 2 m/s 665 mm Hg 92%
09:00 -8°C° 0 mm 2 m/s 665 mm Hg 91%
10:00 -7°C° 0.1 mm 2 m/s 665 mm Hg 87%
11:00 -7°C° 0.1 mm 3 m/s 665 mm Hg 84%
12:00 -5°C° 0.1 mm 3 m/s 666 mm Hg 81%
13:00 -5°C° 0.1 mm 3 m/s 666 mm Hg 80%
14:00 -5°C° 0.1 mm 4 m/s 666 mm Hg 79%
15:00 -5°C° 0.1 mm 4 m/s 666 mm Hg 78%
16:00 -7°C° 0 mm 3 m/s 666 mm Hg 82%
17:00 -9°C° 0 mm 3 m/s 666 mm Hg 86%
18:00 -9°C° 0 mm 2 m/s 666 mm Hg 90%
19:00 -10°C° 0 mm 2 m/s 667 mm Hg 91%
20:00 -13°C° 0 mm 2 m/s 667 mm Hg 92%
21:00 -14°C° 0 mm 2 m/s 667 mm Hg 93%
22:00 -14°C° 0 mm 2 m/s 667 mm Hg 94%
23:00 -14°C° 0 mm 2 m/s 667 mm Hg 94%
Mostrare altro

Abbiamo bisogno del tuo consenso

Meteoprog e i nostri fornitori di servizi possono memorizzare e accedere a dati personali come cookie, identificatori di dispositivi o altre tecnologie simili sul tuo dispositivo e possono elaborare tali dati per personalizzare i contenuti e gli annunci, nonché fornire funzionalità dei social media e analizzarne il traffico.

  • Archiviare e/o accedere alle informazioni sul tuo dispositivo

    Cookie, identificatori di dispositivi o altre informazioni possono essere memorizzati o resi accessibili sul tuo dispositivo per le finalità sopra indicate.

  • Annunci e contenuti personalizzati, misurazione di annunci e contenuti, approfondimenti sul pubblico e sviluppo di prodotti

    Gli annunci e i contenuti possono essere personalizzati in base a un profilo. È possibile aggiungere più dati per personalizzare meglio annunci e contenuti. È possibile misurare il rendimento degli annunci e dei contenuti. È possibile ricavare informazioni sul pubblico che ha visto gli annunci e i contenuti. Tali dati possono essere utilizzati per sviluppare o migliorare l'esperienza, i sistemi e il software dell'utente.

Cliccando su “Accetto”, acconsenti all'uso di cookie, identificatori di dispositivo, web beacon o altre tecnologie simili. Puoi modificare le impostazioni nel browser del tuo dispositivo.

Per determinati scopi, è possibile fare affidamento su interessi legali, piuttosto che sul consenso. Puoi approfondire questo argomento consultando la nostra Informativa sulla privacy e sui cookie.